Regional Weather Roundup
Issued by NWS Charleston, SC

Current Version | Previous Version | Graphics & Text | Print | Product List | Glossary On
Versions: 1 2 3 4 5 6 7 8 9 10 11 12 13 14 15 16 17 18 19 20 21 22 23 24 25 26 27 28 29 30 31 32 33 34 35 36 37 38 39 40 41 42 43 44 45 46 47 48 49 50
000 ASUS42 KCHS 201327 RWRCHS REGIONAL WEATHER ROUNDUP NATIONAL WEATHER SERVICE CHARLESTON SC 900 AM EDT THU JUL 20 2017 NOTE: "FAIR" INDICATES FEW OR NO CLOUDS BELOW 12,000 FEET WITH NO SIGNIFICANT WEATHER AND/OR OBSTRUCTIONS TO VISIBILITY. NOT ALL STATIONS ARE QUALITY CONTROLLED. USE DATA WITH CAUTION... ESPECIALLY DEWPOINT OBSERVATIONS. SCZ027-030-031-034>040-042>050-201400- ...SOUTHEAST SOUTH CAROLINA... CITY SKY/WX TMP DP RH WIND PRES REMARKS N CHARLESTON MOSUNNY 80 75 84 W6 30.09R WATERFRONT PRK N/A 80 76 87 W5 30.07R JOHNS ISLAND FAIR 82 77 83 W5 30.09S HX 91 PINOPOLIS N/A 79 73 83 VRB3 30.02R MONCKS CORNER FAIR 77 73 88 CALM 30.09S SUMMERVILLE FAIR 77 73 88 CALM 30.10S BEAUFORT MCAS SUNNY 82 78 88 CALM 30.08S HX 91 BEAUFORT ARPT FAIR 81 77 89 CALM 30.09R HILTON HEAD IS SUNNY 82 77 83 SW6 30.10R HX 91 WALTERBORO SUNNY 79 73 83 W3 30.10S ALLENDALE N/A N/A N/A N/A MISG N/A ...SOUTHERN MIDLANDS AND PEE DEE... CITY SKY/WX TMP DP RH WIND PRES REMARKS GEORGETOWN FAIR 77 77 100 W5 30.10S KINGSTREE FAIR 77 72 83 W3 30.09S ORANGEBURG SUNNY 78 72 81 CALM 30.08S BARNWELL FAIR 82 75 78 W6 30.08S AIKEN FAIR 81 73 78 W6 30.13R MANNING FAIR 79 75 89 MISG 30.09S COLUMBIA SUNNY 80 72 76 W5 30.07S SUMTER SUNNY 79 71 75 SW3 30.06S FLORENCE SUNNY 77 72 84 SW3 30.09S MYRTLE BEACH SUNNY 79 73 83 NW12 30.09S N MYRTLE BEACH SUNNY 79 73 82 NW5 30.08S $$ GAZ063-065-086>088-099>101-113>116-118-119-134>141-150-201400- ...SOUTHEAST GEORGIA... CITY SKY/WX TMP DP RH WIND PRES REMARKS SAVANNAH ARPT MOSUNNY 80 76 87 W3 30.09R HUNTER AAF SUNNY 81 76 84 W3 30.06S HAZE FORT STEWART SUNNY 79 74 85 SW6 30.06S STATESBORO SUNNY 83 75 76 W6 30.09R HX 91 SYLVANIA SUNNY 82 77 84 NW3 30.10R HX 90 CLAXTON FAIR 82 77 83 CALM 30.09S HX 91 ...CSRA...CENTRAL AND FAR SOUTHEAST GEORGIA... CITY SKY/WX TMP DP RH WIND PRES REMARKS THOMSON SUNNY 82 73 73 N6 30.14F AUGUSTA-BUSH SUNNY 82 74 76 CALM 30.08S AUGUSTA-DANIEL SUNNY 83 71 67 VRB5 30.10S SWAINSBORO FAIR 81 73 78 W5 30.10S VIDALIA SUNNY 82 77 83 W3 30.10R HX 91 EASTMAN FAIR 83 72 69 CALM 30.12S HAZLEHURST FAIR 83 79 90 W3 30.09R HX 94 ALMA SUNNY 81 74 79 VRB3 30.09R WAYCROSS SUNNY 84 80 86 SW3 30.09S HX 97 JESUP FAIR 82 72 69 CALM 30.09S BAXLEY FAIR 81 81 100 CALM 30.09S HX 91 BRUNSWICK MOSUNNY 82 75 78 CALM 30.10S SAINT SIMONS SUNNY 83 75 77 W6 30.08S HX 90 $$ SCZ027-028-034-036>038-045-046-048>050-GAZ119-141-201400- ...LAKE AND SUPPLEMENTAL COASTAL OBSERVATIONS... STATION/POSITION TIME TEMP WIND PRES WAVE SWELL AIR SEA DIR/SP/G HT/PER HT/PER/DIR (UTC) (F) (DEG/KT/KT) (MB) (FT/S) (FT/S/D) WINYAH BAY 1245 76 300/ 5 1019.0S LAKE MURRAY 1230 79 280/ 4/ 6 1017.6S ACE BASIN NERRS 1245 80 260/ 2 1019.0S FORT PULASKI 1300 81 85 230/ 3/ 4 1019.3 SAPELO ISLAND 1300 83 CALM 1019.0 $$ ANZ835-935-AMZ111-154-330-350-352-354-370-450-454-472-201400- ...C-MAN AND BUOY OBSERVATIONS... STATION/POSITION TIME TEMP WIND PRES WAVE SWELL AIR SEA DIR/SP/G HT/PER HT/PER/DIR (UTC) (F) (DEG/KT/KT) (MB) (FT/S) (FT/S/D) BUOY 41004 1310 81 83 340/ 8/ 10 1019.0 BUOY 41008 1250 81 82 270/ 8/ 8 1018.7R 2/ 9 2/100/ 9 FOLLY BEACH CMAN 1300 81 270/ 5/ 6 1019.6R CAPERS NEARSHORE 1308 81 83 290/ 6/ 8 1018.9R FRIPP NEARSHORE 1308 81 83 270/ 4/ 6 1018.7R STATION/POSITION TIME TEMP WIND PRES WAVE SWELL AIR SEA DIR/SP/G HT/PER HT/PER/DIR (UTC) (F) (DEG/KT/KT) (MB) (FT/S) (FT/S/D) 5E ST. MARYS GA 1300 81 N/A 2/ 9 FRYING PAN BUOY 1310 80 83 310/ 10/ 12 1018.5 BUOY 41025 1250 81 84 350/ 6/ 8 1018.2R 2/ 6 2/140/ 6 CAPE LOOKOUT NC 1300 81 300/ 2/ 3 1018.0S BUOY 41002 1250 81 83 200/ 4/ 6 1019.7S 4/ 5 3/130/ 5 BUOY 41010 1310 81 85 240/ 6/ 10 1019.9 ST AUGUSTINE FL 1300 81 80 230/ 3/ 3 1019.7R $$

USA.gov is the U.S. government's official web portal to all federal, state and local government web resources and services.